,,,PA_Meas_PMT16A,,PR_Meas_QMR101_102,,RH_Meas_QMH101,,SR_Meas_QMS101,,TA_Meas_QMH101,,GenWind,,GenWind,
date,time,status,PA,status,PR,status,RH,status,SR,status,TA,status,DirAvg,status,SpdAvg,
2011-05-17, 00:00:04,VALID,1005.12,VALID,0,INVALID,163.624,VALID,0,VALID,25.6077,VALID,342,VALID,0.696875,
2011-05-17, 00:01:04,VALID,1005.13,VALID,0,INVALID,163.617,VALID,0,VALID,25.6292,VALID,340,VALID,0.399609,
2011-05-17, 00:02:04,VALID,1005.12,VALID,0,INVALID,163.632,VALID,0,VALID,25.6292,VALID,340,VALID,0.246094,
2011-05-17, 00:03:04,VALID,1005.1,VALID,0,INVALID,163.617,VALID,0,VALID,25.6506,VALID,340,VALID,0,
2011-05-17, 00:04:04,VALID,1005.07,VALID,0,INVALID,163.624,VALID,0,VALID,25.6116,VALID,340,VALID,0,
2011-05-17, 00:05:04,VALID,1005.04,VALID,0,INVALID,163.624,VALID,0,VALID,25.5921,VALID,340,VALID,0.00078125,
2011-05-17, 00:06:04,VALID,1005.03,VALID,0,INVALID,163.639,VALID,0,VALID,25.5513,VALID,340,VALID,0.291016,
2011-05-17, 00:07:04,VALID,1005.04,VALID,0,INVALID,163.609,VALID,0,VALID,25.5142,VALID,340,VALID,0.273438,
2011-05-17, 00:08:04,VALID,1005.05,VALID,0,INVALID,163.624,VALID,0,VALID,25.4558,VALID,340,VALID,0.432813,
2011-05-17, 00:09:04,VALID,1005.04,VALID,0,INVALID,163.617,VALID,0,VALID,25.4149,VALID,340,VALID,0.355469,
2011-05-17, 00:10:04,VALID,1005.03,VALID,0,INVALID,163.639,VALID,0,VALID,25.4363,VALID,340,VALID,0.410547,
2011-05-17, 00:11:04,VALID,1005.04,VALID,0,INVALID,163.632,VALID,0,VALID,25.376,VALID,340,VALID,0.442578,
2011-05-17, 00:12:04,VALID,1005.05,VALID,0,INVALID,163.639,VALID,0,VALID,25.337,VALID,340,VALID,0.564062,
2011-05-17, 00:13:04,VALID,1005.04,VALID,0,INVALID,163.655,VALID,0.100563,VALID,25.3565,VALID,340,VALID,0.397266,
2011-05-17, 00:14:04,VALID,1005.06,VALID,0,INVALID,163.624,VALID,0,VALID,25.3565,VALID,360,VALID,0.397656,
2011-05-17, 00:15:04,VALID,1005.02,VALID,0,INVALID,163.632,VALID,0.100563,VALID,25.3546,VALID,360,VALID,0.432422,
2011-05-17, 00:16:04,VALID,1005.04,VALID,0,INVALID,163.655,VALID,0,VALID,25.3565,VALID,360,VALID,0.165625,
2011-05-17, 00:17:04,VALID,1005.04,VALID,0,INVALID,163.639,VALID,0,VALID,25.376,VALID,360,VALID,0.298047,
2011-05-17, 00:18:04,VALID,1005,VALID,0,INVALID,163.655,VALID,0.100563,VALID,25.376,VALID,360,VALID,0.392188,
2011-05-17, 00:19:04,VALID,1004.99,VALID,0,INVALID,163.655,VALID,0,VALID,25.3955,VALID,360,VALID,0.166406,
2011-05-17, 00:20:04,VALID,1005.01,VALID,0,INVALID,163.632,VALID,0,VALID,25.3741,VALID,360,VALID,0.161719,
2011-05-17, 00:21:04,VALID,1005,VALID,0,INVALID,163.662,VALID,0,VALID,25.3741,VALID,360,VALID,0.23125,
2011-05-17, 00:22:04,VALID,1004.96,VALID,0,INVALID,163.624,VALID,0,VALID,25.3546,VALID,360,VALID,0.227344,
2011-05-17, 00:23:04,VALID,1004.98,VALID,0,INVALID,163.647,VALID,0.100563,VALID,25.337,VALID,360,VALID,0.11875,
2011-05-17, 00:24:04,VALID,1005.02,VALID,0,INVALID,163.647,VALID,0,VALID,25.3176,VALID,360,VALID,0.132031,
2011-05-17, 00:25:04,VALID,1005.03,VALID,0,INVALID,163.632,VALID,0,VALID,25.2962,VALID,360,VALID,0.457812,
2011-05-17, 00:26:04,VALID,1005.03,VALID,0,INVALID,163.655,VALID,0,VALID,25.2786,VALID,360,VALID,0.301172,
2011-05-17, 00:27:04,VALID,1005.05,VALID,0,INVALID,163.647,VALID,0,VALID,25.2397,VALID,360,VALID,0.241406,
2011-05-17, 00:28:04,VALID,1005.06,VALID,0,INVALID,163.655,VALID,0,VALID,25.2007,VALID,360,VALID,0.0878906,
2011-05-17, 00:29:04,VALID,1005.04,VALID,0,INVALID,163.655,VALID,0,VALID,25.1618,VALID,360,VALID,0.172656,
2011-05-17, 00:30:04,VALID,1005.06,VALID,0,INVALID,163.624,VALID,0,VALID,25.121,VALID,360,VALID,0.132031,
2011-05-17, 00:31:04,VALID,1005.04,VALID,0,INVALID,163.624,VALID,0,VALID,25.1423,VALID,360,VALID,0.225781,
2011-05-17, 00:32:04,VALID,1005.04,VALID,0,INVALID,163.678,VALID,0,VALID,25.1229,VALID,360,VALID,0.308594,
2011-05-17, 00:33:04,VALID,1005.01,VALID,0,INVALID,163.655,VALID,0,VALID,25.1423,VALID,359,VALID,0.385547,
2011-05-17, 00:34:04,VALID,1004.98,VALID,0,INVALID,163.655,VALID,0,VALID,25.1423,VALID,359,VALID,0.246094,
2011-05-17, 00:35:04,VALID,1004.97,VALID,0,INVALID,163.639,VALID,0,VALID,25.121,VALID,359,VALID,0.469531,
2011-05-17, 00:36:04,VALID,1004.95,VALID,0,INVALID,163.662,VALID,0,VALID,25.1618,VALID,359,VALID,0.262109,
2011-05-17, 00:37:04,VALID,1004.94,VALID,0,INVALID,163.655,VALID,0,VALID,25.1618,VALID,359,VALID,0.496875,
2011-05-17, 00:38:04,VALID,1004.93,VALID,0,INVALID,163.678,VALID,0,VALID,25.1423,VALID,359,VALID,0.591016,
2011-05-17, 00:39:04,VALID,1004.92,VALID,0,INVALID,163.655,VALID,0,VALID,25.1015,VALID,359,VALID,0.482031,
2011-05-17, 00:40:04,VALID,1004.9,VALID,0,INVALID,163.662,VALID,0,VALID,25.0839,VALID,359,VALID,0.401172,
2011-05-17, 00:41:04,VALID,1004.9,VALID,0,INVALID,163.662,VALID,0,VALID,25.0255,VALID,359,VALID,0.433203,
2011-05-17, 00:42:04,VALID,1004.89,VALID,0,INVALID,163.678,VALID,0,VALID,24.9652,VALID,359,VALID,0.327344,
2011-05-17, 00:43:04,VALID,1004.88,VALID,0,INVALID,163.693,VALID,0,VALID,24.9476,VALID,359,VALID,0.247656,
2011-05-17, 00:44:04,VALID,1004.85,VALID,0,INVALID,163.701,VALID,0,VALID,24.9476,VALID,359,VALID,0.331641,
2011-05-17, 00:45:04,VALID,1004.83,VALID,0,INVALID,163.655,VALID,0,VALID,24.9476,VALID,359,VALID,0.20625,
2011-05-17, 00:46:04,VALID,1004.83,VALID,0,INVALID,163.67,VALID,0,VALID,24.9282,VALID,359,VALID,0.207031,
2011-05-17, 00:47:04,VALID,1004.78,VALID,0,INVALID,163.639,VALID,0,VALID,24.9282,VALID,359,VALID,0.353516,
2011-05-17, 00:48:04,VALID,1004.79,VALID,0,INVALID,163.67,VALID,0,VALID,24.9087,VALID,359,VALID,0.376953,
2011-05-17, 00:49:04,VALID,1004.72,VALID,0,INVALID,163.655,VALID,0,VALID,24.9087,VALID,359,VALID,0.342969,
2011-05-17, 00:50:04,VALID,1004.7,VALID,0,INVALID,163.655,VALID,0,VALID,24.9282,VALID,359,VALID,0.250781,
2011-05-17, 00:51:04,VALID,1004.67,VALID,0,INVALID,163.655,VALID,0.100563,VALID,24.9476,VALID,359,VALID,0.442578,
2011-05-17, 00:52:04,VALID,1004.64,VALID,0,INVALID,163.685,VALID,0,VALID,24.9263,VALID,359,VALID,0.4125,
2011-05-17, 00:53:04,VALID,1004.62,VALID,0,INVALID,163.655,VALID,0,VALID,24.9087,VALID,359,VALID,0.385938,
2011-05-17, 00:54:04,VALID,1004.6,VALID,0,INVALID,163.662,VALID,0,VALID,24.8892,VALID,359,VALID,0.479297,
2011-05-17, 00:55:04,VALID,1004.59,VALID,0,INVALID,163.708,VALID,0,VALID,24.8503,VALID,359,VALID,0.341406,
2011-05-17, 00:56:04,VALID,1004.58,VALID,0,INVALID,163.701,VALID,0,VALID,24.8289,VALID,359,VALID,0.268359,
2011-05-17, 00:57:04,VALID,1004.58,VALID,0,INVALID,163.662,VALID,0,VALID,24.79,VALID,359,VALID,0.349609,
2011-05-17, 00:58:04,VALID,1004.6,VALID,0,INVALID,163.701,VALID,0.100563,VALID,24.8113,VALID,359,VALID,0.675391,
2011-05-17, 00:59:04,VALID,1004.58,VALID,0,INVALID,163.693,VALID,0,VALID,24.7937,VALID,359,VALID,0.358594,
2011-05-17, 01:00:04,VALID,1004.59,VALID,0,INVALID,163.685,VALID,0,VALID,24.7919,VALID,359,VALID,0.270703,
2011-05-17, 01:01:04,VALID,1004.57,VALID,0,INVALID,163.685,VALID,0,VALID,24.7919,VALID,359,VALID,0.209766,
2011-05-17, 01:02:04,VALID,1004.54,VALID,0,INVALID,163.701,VALID,0.100563,VALID,24.751,VALID,359,VALID,0.0582031,
2011-05-17, 01:03:04,VALID,1004.51,VALID,0,INVALID,163.685,VALID,0,VALID,24.7724,VALID,359,VALID,0.00078125,
2011-05-17, 01:04:04,VALID,1004.49,VALID,0,INVALID,163.693,VALID,0,VALID,24.7724,VALID,359,VALID,0,
2011-05-17, 01:05:04,VALID,1004.49,VALID,0,INVALID,163.685,VALID,0,VALID,24.7724,VALID,359,VALID,0.00390625,
2011-05-17, 01:06:04,VALID,1004.5,VALID,0,INVALID,163.701,VALID,0,VALID,24.7724,VALID,359,VALID,0,
2011-05-17, 01:07:04,VALID,1004.47,VALID,0,INVALID,163.693,VALID,0,VALID,24.79,VALID,359,VALID,0,
2011-05-17, 01:08:04,VALID,1004.47,VALID,0,INVALID,163.662,VALID,0,VALID,24.7705,VALID,359,VALID,0,
2011-05-17, 01:09:04,VALID,1004.46,VALID,0,INVALID,163.662,VALID,0,VALID,24.79,VALID,359,VALID,0,
2011-05-17, 01:10:04,VALID,1004.4,VALID,0,INVALID,163.67,VALID,0,VALID,24.7919,VALID,359,VALID,0,
2011-05-17, 01:11:04,VALID,1004.43,VALID,0,INVALID,163.708,VALID,0,VALID,24.7919,VALID,359,VALID,0,
2011-05-17, 01:12:04,VALID,1004.39,VALID,0,INVALID,163.716,VALID,0,VALID,24.7919,VALID,359,VALID,0,
2011-05-17, 01:13:04,VALID,1004.36,VALID,0,INVALID,163.685,VALID,0,VALID,24.7724,VALID,359,VALID,0,
2011-05-17, 01:14:04,VALID,1004.36,VALID,0,INVALID,163.67,VALID,0,VALID,24.7705,VALID,359,VALID,0,
2011-05-17, 01:15:04,VALID,1004.33,VALID,0,INVALID,163.678,VALID,0,VALID,24.7919,VALID,359,VALID,0,
2011-05-17, 01:16:04,VALID,1004.32,VALID,0,INVALID,163.693,VALID,0,VALID,24.7919,VALID,359,VALID,0,
2011-05-17, 01:17:04,VALID,1004.33,VALID,0,INVALID,163.701,VALID,0,VALID,24.8113,VALID,359,VALID,0,
2011-05-17, 01:18:04,VALID,1004.3,VALID,0,INVALID,163.693,VALID,0.100563,VALID,24.8132,VALID,359,VALID,0,
2011-05-17, 01:19:04,VALID,1004.32,VALID,0,INVALID,163.678,VALID,0.100563,VALID,24.7705,VALID,331,VALID,0.626562,
2011-05-17, 01:20:04,VALID,1004.3,VALID,0,INVALID,163.701,VALID,0,VALID,24.8522,VALID,346,VALID,0.583594,
2011-05-17, 01:21:04,VALID,1004.28,VALID,0,INVALID,163.701,VALID,0.100563,VALID,24.8308,VALID,346,VALID,0.403516,
2011-05-17, 01:22:04,VALID,1004.28,VALID,0,INVALID,163.701,VALID,0,VALID,24.8697,VALID,346,VALID,0.198437,
2011-05-17, 01:23:04,VALID,1004.29,VALID,0,INVALID,163.685,VALID,0.100563,VALID,24.8484,VALID,345,VALID,0.181641,
2011-05-17, 01:24:04,VALID,1004.26,VALID,0,INVALID,163.67,VALID,0,VALID,24.8911,VALID,341,VALID,0.476953,
2011-05-17, 01:25:04,VALID,1004.24,VALID,0,INVALID,163.662,VALID,0,VALID,24.9087,VALID,348,VALID,0.324219,
2011-05-17, 01:26:04,VALID,1004.25,VALID,0,INVALID,163.678,VALID,0.100563,VALID,24.8873,VALID,348,VALID,0.257813,
2011-05-17, 01:27:04,VALID,1004.23,VALID,0,INVALID,163.678,VALID,0,VALID,24.9087,VALID,347,VALID,0.589453,
2011-05-17, 01:28:04,VALID,1004.28,VALID,0,INVALID,163.662,VALID,0,VALID,24.9068,VALID,347,VALID,0.444922,
2011-05-17, 01:29:04,VALID,1004.26,VALID,0,INVALID,163.655,VALID,0,VALID,24.9476,VALID,357,VALID,0.233594,
2011-05-17, 01:30:04,VALID,1004.24,VALID,0,INVALID,163.701,VALID,0,VALID,24.9282,VALID,357,VALID,0.198047,
2011-05-17, 01:31:04,VALID,1004.23,VALID,0,INVALID,163.655,VALID,0,VALID,24.9671,VALID,17,VALID,0.641797,
2011-05-17, 01:32:04,VALID,1004.19,VALID,0,INVALID,163.67,VALID,0.100563,VALID,25.0041,VALID,26,VALID,0.408594,
2011-05-17, 01:33:04,VALID,1004.17,VALID,0,INVALID,163.685,VALID,0,VALID,25.006,VALID,26,VALID,0.130469,
2011-05-17, 01:34:04,VALID,1004.2,VALID,0,INVALID,163.662,VALID,0,VALID,25.045,VALID,25,VALID,0.383984,
2011-05-17, 01:35:04,VALID,1004.14,VALID,0,INVALID,163.655,VALID,0,VALID,25.0644,VALID,15,VALID,0.645312,
2011-05-17, 01:36:04,VALID,1004.13,VALID,0,INVALID,163.67,VALID,0,VALID,25.0644,VALID,357,VALID,0.622656,
2011-05-17, 01:37:04,VALID,1004.11,VALID,0,INVALID,163.662,VALID,0.100563,VALID,25.0625,VALID,358,VALID,0.633203,
2011-05-17, 01:38:04,VALID,1004.11,VALID,0,INVALID,163.662,VALID,0.100563,VALID,25.1034,VALID,350,VALID,0.578516,
2011-05-17, 01:39:04,VALID,1004.1,VALID,0,INVALID,163.678,VALID,0,VALID,25.1229,VALID,350,VALID,0.390234,
2011-05-17, 01:40:04,VALID,1004.09,VALID,0,INVALID,163.647,VALID,0,VALID,25.1229,VALID,350,VALID,0.429297,
2011-05-17, 01:41:04,VALID,1004.07,VALID,0,INVALID,163.67,VALID,0,VALID,25.1229,VALID,343,VALID,0.651953,
2011-05-17, 01:42:04,VALID,1004.07,VALID,0,INVALID,163.67,VALID,0,VALID,25.1423,VALID,339,VALID,0.444141,
2011-05-17, 01:43:04,VALID,1004.02,VALID,0,INVALID,163.662,VALID,0,VALID,25.1442,VALID,339,VALID,0.327734,
2011-05-17, 01:44:04,VALID,1003.96,VALID,0,INVALID,163.685,VALID,0,VALID,25.1229,VALID,339,VALID,0.485938,
2011-05-17, 01:45:04,VALID,1003.93,VALID,0,INVALID,163.662,VALID,0,VALID,25.1618,VALID,339,VALID,0.458984,
2011-05-17, 01:46:04,VALID,1003.9,VALID,0,INVALID,163.647,VALID,0,VALID,25.1813,VALID,339,VALID,0.579687,
2011-05-17, 01:47:04,VALID,1003.9,VALID,0,INVALID,163.639,VALID,0,VALID,25.2007,VALID,339,VALID,0.594141,
2011-05-17, 01:48:04,VALID,1003.85,VALID,0,INVALID,163.67,VALID,0,VALID,25.2397,VALID,344,VALID,1.07891,
2011-05-17, 01:49:04,VALID,1003.83,VALID,0,INVALID,163.624,VALID,0,VALID,25.2981,VALID,351,VALID,0.445313,
2011-05-17, 01:50:04,VALID,1003.83,VALID,0,INVALID,163.67,VALID,0,VALID,25.3565,VALID,346,VALID,0.0667969,
2011-05-17, 01:51:04,VALID,1003.75,VALID,0,INVALID,163.639,VALID,0,VALID,25.3565,VALID,343,VALID,0.537109,
2011-05-17, 01:52:04,VALID,1003.73,VALID,0,INVALID,163.639,VALID,0,VALID,25.337,VALID,342,VALID,0,
2011-05-17, 01:53:04,VALID,1003.71,VALID,0,INVALID,163.624,VALID,0,VALID,25.3157,VALID,342,VALID,0.0660156,
2011-05-17, 01:54:04,VALID,1003.68,VALID,0,INVALID,163.647,VALID,0,VALID,25.2962,VALID,345,VALID,0.507813,
2011-05-17, 01:55:04,VALID,1003.66,VALID,0,INVALID,163.624,VALID,0,VALID,25.337,VALID,348,VALID,0.317578,
2011-05-17, 01:56:04,VALID,1003.64,VALID,0,INVALID,163.647,VALID,0,VALID,25.337,VALID,348,VALID,0.595312,
2011-05-17, 01:57:04,VALID,1003.67,VALID,0,INVALID,163.67,VALID,0,VALID,25.3565,VALID,341,VALID,0.445313,
2011-05-17, 01:58:04,VALID,1003.65,VALID,0,INVALID,163.632,VALID,0,VALID,25.3779,VALID,344,VALID,0.692969,
2011-05-17, 01:59:04,VALID,1003.66,VALID,0,INVALID,163.639,VALID,0,VALID,25.337,VALID,344,VALID,0.40625,
2011-05-17, 02:00:04,VALID,1003.62,VALID,0,INVALID,163.647,VALID,0,VALID,25.2981,VALID,347,VALID,0.666016,
2011-05-17, 02:01:04,VALID,1003.65,VALID,0,INVALID,163.639,VALID,0,VALID,25.2592,VALID,348,VALID,0.589453,
2011-05-17, 02:02:04,VALID,1003.62,VALID,0,INVALID,163.662,VALID,0,VALID,25.2202,VALID,348,VALID,1.05469,
2011-05-17, 02:03:04,VALID,1003.61,VALID,0,INVALID,163.655,VALID,0,VALID,25.2397,VALID,348,VALID,0.559375,
2011-05-17, 02:04:04,VALID,1003.56,VALID,0,INVALID,163.624,VALID,0,VALID,25.2786,VALID,355,VALID,0.446875,
2011-05-17, 02:05:04,VALID,1003.54,VALID,0,INVALID,163.632,VALID,0,VALID,25.2981,VALID,339,VALID,0.760938,
2011-05-17, 02:06:04,VALID,1003.52,VALID,0,INVALID,163.639,VALID,0,VALID,25.2981,VALID,360,VALID,0.499219,
2011-05-17, 02:07:04,VALID,1003.51,VALID,0,INVALID,163.632,VALID,0,VALID,25.3176,VALID,348,VALID,0.549609,
2011-05-17, 02:08:04,VALID,1003.5,VALID,0,INVALID,163.624,VALID,0,VALID,25.3565,VALID,321,VALID,0.397656,
2011-05-17, 02:09:04,VALID,1003.52,VALID,0,INVALID,163.647,VALID,0,VALID,25.3935,VALID,346,VALID,0.969141,
2011-05-17, 02:10:04,VALID,1003.51,VALID,0,INVALID,163.632,VALID,0,VALID,25.4539,VALID,343,VALID,0.138672,
2011-05-17, 02:11:04,VALID,1003.53,VALID,0,INVALID,163.639,VALID,0,VALID,25.4734,VALID,343,VALID,0.409766,
2011-05-17, 02:12:04,VALID,1003.52,VALID,0,INVALID,163.639,VALID,0,VALID,25.5123,VALID,354,VALID,0.596094,
2011-05-17, 02:13:04,VALID,1003.53,VALID,0,INVALID,163.632,VALID,0,VALID,25.5337,VALID,3,VALID,0.379687,
2011-05-17, 02:14:04,VALID,1003.52,VALID,0,INVALID,163.624,VALID,0,VALID,25.4734,VALID,360,VALID,0.408203,
2011-05-17, 02:15:04,VALID,1003.51,VALID,0,INVALID,163.639,VALID,0,VALID,25.4344,VALID,360,VALID,0.4625,
2011-05-17, 02:16:04,VALID,1003.47,VALID,0,INVALID,163.624,VALID,0.100563,VALID,25.4344,VALID,357,VALID,0.469922,
2011-05-17, 02:17:04,VALID,1003.46,VALID,0,INVALID,163.639,VALID,0,VALID,25.3974,VALID,356,VALID,0.405469,
2011-05-17, 02:18:04,VALID,1003.42,VALID,0,INVALID,163.609,VALID,0,VALID,25.376,VALID,355,VALID,0.394531,
2011-05-17, 02:19:04,VALID,1003.41,VALID,0,INVALID,163.647,VALID,0,VALID,25.376,VALID,296,VALID,0.441797,
2011-05-17, 02:20:04,VALID,1003.41,VALID,0,INVALID,163.662,VALID,0.100563,VALID,25.376,VALID,295,VALID,0.00585938,
2011-05-17, 02:21:04,VALID,1003.43,VALID,0,INVALID,163.639,VALID,0,VALID,25.376,VALID,299,VALID,0.10625,
2011-05-17, 02:22:04,VALID,1003.42,VALID,0,INVALID,163.662,VALID,0,VALID,25.3565,VALID,302,VALID,0.186719,
2011-05-17, 02:23:04,VALID,1003.44,VALID,0,INVALID,163.617,VALID,0,VALID,25.376,VALID,347,VALID,0.555078,
2011-05-17, 02:24:04,VALID,1003.41,VALID,0,INVALID,163.617,VALID,0,VALID,25.376,VALID,347,VALID,0.252734,
2011-05-17, 02:25:04,VALID,1003.44,VALID,0,INVALID,163.647,VALID,0,VALID,25.3955,VALID,347,VALID,0.366797,
2011-05-17, 02:26:04,VALID,1003.45,VALID,0,INVALID,163.639,VALID,0,VALID,25.376,VALID,318,VALID,0.399609,
2011-05-17, 02:27:04,VALID,1003.46,VALID,0,INVALID,163.662,VALID,0.100563,VALID,25.376,VALID,320,VALID,0.395703,
2011-05-17, 02:28:04,VALID,1003.5,VALID,0,INVALID,163.617,VALID,0,VALID,25.3565,VALID,320,VALID,0.419141,
2011-05-17, 02:29:04,VALID,1003.49,VALID,0,INVALID,163.647,VALID,0,VALID,25.337,VALID,320,VALID,0.304297,
2011-05-17, 02:30:04,VALID,1003.49,VALID,0,INVALID,163.624,VALID,0,VALID,25.2981,VALID,320,VALID,0.0804688,
2011-05-17, 02:31:04,VALID,1003.52,VALID,0,INVALID,163.632,VALID,0.100563,VALID,25.2786,VALID,320,VALID,0.310547,
2011-05-17, 02:32:04,VALID,1003.56,VALID,0,INVALID,163.67,VALID,0,VALID,25.2378,VALID,336,VALID,0.365625,
2011-05-17, 02:33:04,VALID,1003.57,VALID,0,INVALID,163.67,VALID,0,VALID,25.2397,VALID,336,VALID,0,
2011-05-17, 02:34:04,VALID,1003.59,VALID,0,INVALID,163.632,VALID,0,VALID,25.2202,VALID,326,VALID,0.336719,
2011-05-17, 02:35:04,VALID,1003.59,VALID,0,INVALID,163.632,VALID,0,VALID,25.2202,VALID,322,VALID,0.0710938,
2011-05-17, 02:36:04,VALID,1003.62,VALID,0,INVALID,163.639,VALID,0,VALID,25.2007,VALID,322,VALID,0.0171875,
2011-05-17, 02:37:04,VALID,1003.62,VALID,0,INVALID,163.639,VALID,0.100563,VALID,25.1794,VALID,330,VALID,0.333203,
2011-05-17, 02:38:04,VALID,1003.64,VALID,0,INVALID,163.655,VALID,0,VALID,25.2007,VALID,338,VALID,0.429688,
2011-05-17, 02:39:04,VALID,1003.67,VALID,0,INVALID,163.647,VALID,0,VALID,25.2007,VALID,338,VALID,0.283203,
2011-05-17, 02:40:04,VALID,1003.67,VALID,0,INVALID,163.647,VALID,0,VALID,25.2183,VALID,293,VALID,0.481641,
2011-05-17, 02:41:04,VALID,1003.7,VALID,0,INVALID,163.647,VALID,0,VALID,25.2183,VALID,23,VALID,0.463281,
2011-05-17, 02:42:04,VALID,1003.73,VALID,0,INVALID,163.655,VALID,0,VALID,25.2397,VALID,23,VALID,0.174219,
2011-05-17, 02:43:04,VALID,1003.74,VALID,0,INVALID,163.639,VALID,0,VALID,25.2806,VALID,23,VALID,0.184766,
2011-05-17, 02:44:04,VALID,1003.72,VALID,0,INVALID,163.655,VALID,0,VALID,25.2806,VALID,21,VALID,0.207422,
2011-05-17, 02:45:04,VALID,1003.74,VALID,0,INVALID,163.624,VALID,0.100563,VALID,25.2592,VALID,20,VALID,0,
2011-05-17, 02:46:04,VALID,1003.73,VALID,0,INVALID,163.632,VALID,0,VALID,25.2397,VALID,270,VALID,0.759375,
2011-05-17, 02:47:04,VALID,1003.74,VALID,0,INVALID,163.647,VALID,0,VALID,25.2592,VALID,269,VALID,0.237109,
2011-05-17, 02:48:04,VALID,1003.73,VALID,0,INVALID,163.647,VALID,0,VALID,25.2786,VALID,269,VALID,0.15,
2011-05-17, 02:49:04,VALID,1003.72,VALID,0,INVALID,163.639,VALID,0,VALID,25.2572,VALID,269,VALID,0,
2011-05-17, 02:50:04,VALID,1003.73,VALID,0,INVALID,163.655,VALID,0,VALID,25.3,VALID,269,VALID,0,
2011-05-17, 02:51:04,VALID,1003.76,VALID,0,INVALID,163.647,VALID,0,VALID,25.2397,VALID,269,VALID,0.360156,
2011-05-17, 02:52:04,VALID,1003.75,VALID,0,INVALID,163.647,VALID,0,VALID,25.1794,VALID,269,VALID,0.275781,
2011-05-17, 02:53:04,VALID,1003.78,VALID,0,INVALID,163.678,VALID,0,VALID,25.1034,VALID,269,VALID,0.403906,
2011-05-17, 02:54:04,VALID,1003.79,VALID,0,INVALID,163.647,VALID,0,VALID,25.0236,VALID,269,VALID,0.3,
2011-05-17, 02:55:04,VALID,1003.78,VALID,0,INVALID,163.624,VALID,0,VALID,24.9671,VALID,269,VALID,0.260938,
2011-05-17, 02:56:04,VALID,1003.81,VALID,0,INVALID,163.67,VALID,0,VALID,24.9087,VALID,269,VALID,0.298047,
2011-05-17, 02:57:04,VALID,1003.8,VALID,0,INVALID,163.662,VALID,0,VALID,24.8503,VALID,269,VALID,0.374219,
2011-05-17, 02:58:04,VALID,1003.79,VALID,0,INVALID,163.678,VALID,0,VALID,24.7919,VALID,269,VALID,0.314844,
2011-05-17, 02:59:04,VALID,1003.79,VALID,0,INVALID,163.662,VALID,0,VALID,24.7335,VALID,269,VALID,0.173047,
2011-05-17, 03:00:04,VALID,1003.77,VALID,0,INVALID,163.685,VALID,0,VALID,24.714,VALID,269,VALID,0.310937,
2011-05-17, 03:01:04,VALID,1003.76,VALID,0,INVALID,163.685,VALID,0,VALID,24.6964,VALID,269,VALID,0,
2011-05-17, 03:02:04,VALID,1003.75,VALID,0,INVALID,163.685,VALID,0,VALID,24.675,VALID,269,VALID,0,
2011-05-17, 03:03:04,VALID,1003.74,VALID,0,INVALID,163.701,VALID,0,VALID,24.6361,VALID,269,VALID,0,
2011-05-17, 03:04:04,VALID,1003.73,VALID,0,INVALID,163.701,VALID,0,VALID,24.6166,VALID,269,VALID,0.23125,
2011-05-17, 03:05:04,VALID,1003.75,VALID,0,INVALID,163.685,VALID,0,VALID,24.5777,VALID,269,VALID,0.2,
2011-05-17, 03:06:04,VALID,1003.77,VALID,0,INVALID,163.716,VALID,0,VALID,24.5193,VALID,269,VALID,0.266797,
2011-05-17, 03:07:04,VALID,1003.79,VALID,0,INVALID,163.701,VALID,0.100563,VALID,24.4804,VALID,269,VALID,0.3,
2011-05-17, 03:08:04,VALID,1003.8,VALID,0,INVALID,163.708,VALID,0,VALID,24.422,VALID,269,VALID,0.41875,
2011-05-17, 03:09:04,VALID,1003.83,VALID,0,INVALID,163.693,VALID,0,VALID,24.4025,VALID,269,VALID,0.475,
2011-05-17, 03:10:05,VALID,1003.85,VALID,0,INVALID,163.685,VALID,0,VALID,24.3636,VALID,269,VALID,0.488281,
2011-05-17, 03:11:05,VALID,1003.86,VALID,0,INVALID,163.716,VALID,0,VALID,24.3441,VALID,269,VALID,0.326172,
2011-05-17, 03:12:05,VALID,1003.88,VALID,0,INVALID,163.701,VALID,0,VALID,24.3441,VALID,269,VALID,0.171875,
2011-05-17, 03:13:05,VALID,1003.9,VALID,0,INVALID,163.701,VALID,0,VALID,24.383,VALID,269,VALID,0.153516,
2011-05-17, 03:14:05,VALID,1003.91,VALID,0,INVALID,163.701,VALID,0,VALID,24.3812,VALID,269,VALID,0.119922,
2011-05-17, 03:15:05,VALID,1003.88,VALID,0,INVALID,163.723,VALID,0,VALID,24.4025,VALID,286,VALID,0.475781,
2011-05-17, 03:16:05,VALID,1003.87,VALID,0,INVALID,163.723,VALID,0,VALID,24.422,VALID,287,VALID,0.298828,
2011-05-17, 03:17:05,VALID,1003.86,VALID,0,INVALID,163.739,VALID,0,VALID,24.4609,VALID,278,VALID,0.176563,
2011-05-17, 03:18:05,VALID,1003.86,VALID,0,INVALID,163.716,VALID,0.100563,VALID,24.4998,VALID,301,VALID,0.560547,
2011-05-17, 03:19:05,VALID,1003.82,VALID,0,INVALID,163.708,VALID,0,VALID,24.5193,VALID,297,VALID,0.321484,
2011-05-17, 03:20:05,VALID,1003.8,VALID,0,INVALID,163.685,VALID,0,VALID,24.5369,VALID,297,VALID,0,
2011-05-17, 03:21:05,VALID,1003.8,VALID,0,INVALID,163.685,VALID,0,VALID,24.6166,VALID,297,VALID,0.402734,
2011-05-17, 03:22:05,VALID,1003.77,VALID,0,INVALID,163.678,VALID,0.100563,VALID,24.6556,VALID,298,VALID,0.217578,
2011-05-17, 03:23:05,VALID,1003.76,VALID,0,INVALID,163.67,VALID,0.100563,VALID,24.675,VALID,309,VALID,0.526953,
2011-05-17, 03:24:05,VALID,1003.77,VALID,0,INVALID,163.685,VALID,0.100563,VALID,24.5953,VALID,5,VALID,0.790625,
2011-05-17, 03:25:05,VALID,1003.77,VALID,0,INVALID,163.708,VALID,0,VALID,24.5369,VALID,12,VALID,0.648828,
2011-05-17, 03:26:05,VALID,1003.75,VALID,0,INVALID,163.701,VALID,0.100563,VALID,24.5193,VALID,12,VALID,0.641797,
2011-05-17, 03:27:05,VALID,1003.75,VALID,0,INVALID,163.693,VALID,0.100563,VALID,24.4804,VALID,12,VALID,0.641016,
2011-05-17, 03:28:05,VALID,1003.73,VALID,0,INVALID,163.731,VALID,0.100563,VALID,24.4414,VALID,12,VALID,0.467187,
2011-05-17, 03:29:05,VALID,1003.73,VALID,0,INVALID,163.723,VALID,0,VALID,24.4414,VALID,12,VALID,0.248828,
2011-05-17, 03:30:05,VALID,1003.74,VALID,0,INVALID,163.708,VALID,0.100563,VALID,24.4201,VALID,8,VALID,0.416016,
2011-05-17, 03:31:05,VALID,1003.71,VALID,0,INVALID,163.716,VALID,0.100563,VALID,24.4006,VALID,360,VALID,0.678125,
2011-05-17, 03:32:05,VALID,1003.7,VALID,0,INVALID,163.739,VALID,0.100563,VALID,24.3812,VALID,359,VALID,0.551562,
2011-05-17, 03:33:05,VALID,1003.75,VALID,0,INVALID,163.716,VALID,0.100563,VALID,24.4025,VALID,356,VALID,0.574219,
2011-05-17, 03:34:05,VALID,1003.71,VALID,0,INVALID,163.716,VALID,0,VALID,24.4414,VALID,356,VALID,0.446875,
2011-05-17, 03:35:05,VALID,1003.73,VALID,0,INVALID,163.708,VALID,0.100563,VALID,24.4998,VALID,356,VALID,0.234766,
2011-05-17, 03:36:05,VALID,1003.75,VALID,0,INVALID,163.716,VALID,0,VALID,24.5388,VALID,356,VALID,0.514453,
2011-05-17, 03:37:05,VALID,1003.73,VALID,0,INVALID,163.701,VALID,0.100563,VALID,24.5777,VALID,344,VALID,0.4625,
2011-05-17, 03:38:05,VALID,1003.75,VALID,0,INVALID,163.678,VALID,0,VALID,24.6166,VALID,347,VALID,0.160938,
2011-05-17, 03:39:05,VALID,1003.75,VALID,0,INVALID,163.708,VALID,0,VALID,24.6342,VALID,347,VALID,0.0394531,